SCOUT A R/B, 2811

Orbit data source: Space-Track

SCOUT A R/B, 2811 is space debris in LEO originally from a launch on Thu, 18 May 1967 UTC launched from the Air Force Western Test Range (AFWTR). Debris objects in space refer to the collection of defunct objects orbiting the Earth. Examples of debris include non-operational satellites, rocket bodies, and fragments generated from explosions, collisions, or faulty payload assembly.

Loading next visibility...
SCOUT A R/B details
Identifier
2811, 1967-048B
Orbit
LEO
Last TLE update16 hours ago
Origin
Flag of USNASA LaRC (US)
ManufacturerABL
MissionSpacecraft
Bus & MotorALTAIR, Unknown motor
Mass33 kg wet, 33 kg dry
Launch date (UTC)
1967-05-18 (58 years ago)
Launch vehicleUnknown
Launch site
Air Force Western Test Range (AFWTR)
Object type
Payload
Rocket body
Debris
Shape & HBRCyl, 1.5 m
Radar Cross Section0.687 m², Medium (>0.1 m² and < 1m²)

Expand to show TLE details & history

TLE from 16 hours ago
0 SCOUT A R/B
1 02811U 67048B   24355.88401556  .00000107  00000-0  15434-3 0  9991
2 02811  89.6750   8.4535 0021090 123.6961 285.8491 13.49236400833243
Epoch: 2024-12-20T21:12Z
Definitive object data (Epoch: 2024-12-20T21:12:58.944Z)
Latitude49.40468°
Longitude-39.35792°
Altitude1,078.691 km
Speed7.319 km/s
True Right ascension00h 35m 19s
True Declination49° 14' 31"
Sunlit
Object was in daylight at TLE epoch
Visualization TLE readout
Latitude-7.08235°
Longitude-39.79686°
Altitude1,089.033 km
Speed7.302 km/s
Apparent Right ascension00h 19m 55s
Apparent Declination-22° 06' 21"
Sunlit
Object is in daylight
Visualization observer readout
Local Sidereal Time11:59:17
Azimuth344.643° N
Elevation-71.658°
Doppler factor1
Orbital elements
Apogee altitude1,087.833 km
Perigee altitude1,056.408 km
Semi-major axis7,450.257 km
Eccentricity0.002109
Inclination89.675°
RAAN8.4535°
Arg. of periapsis123.6961°
True anomaly285.61645°
Mean anomaly285.8491°
Eccentric anomaly285.73279°
Mean motion3.3751 °/min
BSTAR0.00015434
Orbital period106.66 mins
Loading maneuver chart data...
Loading historical data...
Loading historical data...
Loading historical data...
Loading historical data...
Loading historical data...
Loading historical data...
Loading historical data...

SCOUT A R/B Visibility forecast

Observer location: undefined°, undefined

Span
Click to sort rows by Start time (UTC) header in descending order
Start Az.
Max El. time (UTC)
Max El. Az.
Max El.
End time (UTC)
End Az.
13 mins2024-12-21 13:34:24.052Z358.409° N2024-12-21 13:40:24.052Z314.751° NW43.616°2024-12-21 13:47:24.052Z190.201° SSW
6 mins2024-12-21 23:50:24.052Z97.653° ESE2024-12-21 23:53:24.052Z67.852° E15.423°2024-12-21 23:56:24.052Z39.425° NE
12 mins2024-12-22 01:33:24.052Z182.351° SSW2024-12-22 01:38:24.052Z225.423° WSW44.083°2024-12-22 01:45:24.052Z355.884° N
11 mins2024-12-22 12:44:24.052Z19.315° NNE2024-12-22 12:49:24.052Z92.309° ESE36.172°2024-12-22 12:55:24.052Z159.536° S
|